Location: Parc des �les de St-Timoth�e
(45.2924°N, 74.0481°W)
Time: 21:42:59
(UTC-04:00)

ISS - All Passes

Search period start: 26 June 2017 00:00
Search period end: 06 July 2017 00:00
Orbit: 401 x 408 km, 51.6° (Epoch: 27 June)

Date Brightness Start Highest point End Pass type
(mag) Time Alt. Az. Time Alt. Az. Time Alt. Az.
26 Jun - 07:55:00 10° SSE 07:56:43 14° SE 07:58:27 10° E daylight
26 Jun - 09:29:29 10° WSW 09:32:46 89° SSE 09:36:04 10° ENE daylight
26 Jun - 11:06:36 10° WNW 11:09:32 29° N 11:12:30 10° NE daylight
26 Jun - 12:43:42 10° NW 12:46:39 29° N 12:49:34 10° ENE daylight
26 Jun - 14:20:08 10° WNW 14:23:28 84° NNE 14:26:45 10° ESE daylight
26 Jun - 15:57:32 10° W 15:59:33 15° SW 16:01:34 10° S daylight
27 Jun - 08:37:26 10° SW 08:40:37 51° SE 08:43:49 10° ENE daylight
27 Jun - 10:14:07 10° W 10:17:12 36° NNW 10:20:18 10° NE daylight
27 Jun - 11:51:25 10° NW 11:54:16 26° N 11:57:07 10° ENE daylight
27 Jun - 13:27:58 10° NW 13:31:14 54° NNE 13:34:28 10° ESE daylight
27 Jun - 15:04:43 10° W 15:07:33 26° SW 15:10:22 10° SSE daylight
28 Jun - 07:45:39 10° SSW 07:48:31 29° SE 07:51:25 10° ENE daylight
28 Jun - 09:21:41 10° W 09:24:53 50° NNW 09:28:07 10° NE daylight
28 Jun - 10:59:02 10° WNW 11:01:52 26° N 11:04:43 10° ENE daylight
28 Jun - 12:35:48 10° NW 12:38:55 38° NNE 12:42:02 10° E daylight
28 Jun - 14:12:17 10° WNW 14:15:28 46° SW 14:18:38 10° SE daylight
29 Jun - 06:54:19 10° S 06:56:30 17° SE 06:58:41 10° E daylight
29 Jun - 08:29:21 10° WSW 08:32:38 77° NNW 08:35:56 10° ENE daylight
29 Jun - 10:06:34 10° WNW 10:09:28 28° N 10:12:22 10° NE daylight
29 Jun - 11:43:35 10° NW 11:46:33 30° NNE 11:49:33 10° ENE daylight
29 Jun - 13:20:00 10° WNW 13:23:18 81° SSW 13:26:36 10° SE daylight
29 Jun - 14:57:51 10° WSW 14:59:18 12° SW 15:00:45 10° SSW daylight
30 Jun - 07:37:11 10° SW 07:40:25 63° SSE 07:43:40 10° ENE daylight
30 Jun - 09:14:03 10° W 09:17:04 33° NNW 09:20:06 10° NE daylight
30 Jun - 10:51:17 10° NW 10:54:09 27° N 10:57:01 10° ENE daylight
30 Jun - 12:27:47 10° WNW 12:31:03 63° NNE 12:34:19 10° ESE daylight
30 Jun - 14:04:42 10° W 14:07:18 22° SW 14:09:53 10° S daylight
01 Jul - 06:45:15 10° SSW 06:48:15 35° SE 06:51:18 10° ENE daylight
01 Jul - 08:21:33 10° W 08:24:42 44° NNW 08:27:53 10° NE daylight
01 Jul - 09:58:53 10° WNW 10:01:43 26° N 10:04:32 10° ENE daylight
01 Jul - 11:35:34 10° NW 11:38:44 42° NNE 11:41:54 10° E daylight
01 Jul - 13:12:07 10° WNW 13:15:12 37° SW 13:18:17 10° SSE daylight
02 Jul - 05:53:41 10° S 05:56:11 20° SE 05:58:41 10° E daylight
02 Jul - 07:29:08 10° WSW 07:32:23 65° NNW 07:35:40 10° ENE daylight
02 Jul - 09:06:25 10° WNW 09:09:16 27° N 09:12:09 10° NE daylight
02 Jul - 10:43:20 10° NW 10:46:21 32° NNE 10:49:23 10° E daylight
02 Jul - 12:19:45 10° WNW 12:23:02 67° SSW 12:26:17 10° SE daylight
03 Jul - 05:02:59 10° SSE 05:04:09 11° SE 05:05:18 10° ESE daylight
03 Jul - 06:36:51 10° SW 06:40:06 77° SSE 06:43:24 10° ENE daylight
03 Jul - 08:13:52 10° WNW 08:16:50 31° NNW 08:19:49 10° NE daylight
03 Jul - 09:51:01 10° NW 09:53:55 28° N 09:56:49 10° ENE daylight
03 Jul - 11:27:28 10° WNW 11:30:46 74° NNE 11:34:03 10° ESE daylight
03 Jul - 13:04:37 10° W 13:06:55 18° SW 13:09:13 10° S daylight
04 Jul - 05:44:47 10° SW 05:47:53 43° SE 05:51:02 10° ENE daylight
04 Jul - 07:21:19 10° W 07:24:25 39° NNW 07:27:32 10° NE daylight
04 Jul - 08:58:38 10° WNW 09:01:27 26° N 09:04:17 10° ENE daylight
04 Jul - 10:35:13 10° NW 10:38:26 48° NNE 10:41:38 10° E daylight
04 Jul - 12:11:52 10° WNW 12:14:49 31° SW 12:17:46 10° SSE daylight
05 Jul - 04:53:01 10° SSW 04:55:45 25° SE 04:58:29 10° E daylight
05 Jul - 06:28:49 10° WSW 06:32:02 56° NNW 06:35:16 10° NE daylight
05 Jul - 08:06:07 10° WNW 08:08:58 26° N 08:11:49 10° NE daylight
05 Jul - 09:42:57 10° NW 09:46:02 35° NNE 09:49:06 10° E daylight
05 Jul - 11:19:24 10° WNW 11:22:38 54° SW 11:25:51 10° SE daylight
